WESTFORD NEEDLES, 18688

Orbit data source: Space-Track

WESTFORD NEEDLES, 18688 is space debris in LEO originally from a launch on Thu, 09 May 1963 UTC launched from the Air Force Western Test Range (AFWTR). Debris objects in space refer to the collection of defunct objects orbiting the Earth. Examples of debris include non-operational satellites, rocket bodies, and fragments generated from explosions, collisions, or faulty payload assembly.

Loading next visibility...
Identifier
18688, 1963-014DM
Orbit
LEO
Country
Flag of USUS
Related business
Manufacturer
Unknown
Mission
Spacecraft
Bus & Motor
Unknown
Mass
Unknown
Launch date (UTC)
1963-05-09 (63 years ago)
Launch vehicle
Unknown
Launch site
Air Force Western Test Range (AFWTR)
Object type
Payload
Rocket body
Debris
Shape & HBR
Unknown shape, 1.1 m
Radar Cross Section
Medium (>0.1 m² and <1 m²)

Expand to show TLE details & history
Last TLE update: 3 weeks ago

TLE from 3 weeks ago
0 WESTFORD NEEDLES
1 18688U 63014DM  26085.48148776  .00000024  00000-0  99393-2 0  9992
2 18688  87.3568 210.3749 0027823 194.7860 165.2183  8.65107229112182
Epoch: 2026-03-26T11:33Z
TLE epoch observation values (Epoch: 2026-03-26T11:33:20.542Z)
Latitude
0.00004°
Longitude
-146.8905°
Altitude
3,674.58 km
Speed
6.289 km/s
True Right ascension
14h 01m 29s
True Declination
0° 00' 00"
Sunlit
Object was in full shadow at epoch
Visualization orbit readout
Latitude
Unknown
Longitude
Unknown
Altitude
Unknown
Speed
Unknown
Apparent Right ascension
Unknown
Apparent Declination
Unknown
Sunlit
N/A
Visualization observer readout
Local Sidereal Time
00:50:05
Azimuth
Unknown
Elevation
Unknown
Doppler factor
Unknown
Orbital elements
Apogee altitude
3,671.126 km
Perigee altitude
3,615.361 km
Semi-major axis
10,021.381 km
Eccentricity
0.00278
Inclination
87.3568°
RAAN
210.3749°
Arg. of periapsis
194.786°
True anomaly
165.29937°
Mean anomaly
165.2183°
Eccentric anomaly
165.25886°
Mean motion
2.16347 °/min
Orbital period
166.4 mins
BSTAR
0.0099393
Loading maneuver chart data...
Computing Atmospheric mass density...

Documentation

Showing up to 5 results
|